User: anonymous   Login
Location: Isle of Man Observatory
(54.1776°N, 4.6264°W)
Time: 14:23:54
(UTC+02:00)
Language:

Hubble Space Telescope - Orbit

View from above orbital plane
View from above orbital plane
View from above satellite
View from above satellite

Ground track
Ground track

The orbit data is extracted from the following two-line orbital elements,

1 20580U 90037B   19114.05233796  .00000437  00000-0  15700-4 0  9996
2 20580  28.4688 219.8467 0002476 245.3492 101.0834 15.09211727392475
Epoch (UTC): 24 April 2019 01:15:22
Eccentricity: 0.0002476
inclination: 28.4688°
perigee height: 537 km
apogee height: 540 km
right ascension of ascending node: 219.8467°
argument of perigee: 245.3492°
revolutions per day: 15.09211727
mean anomaly at epoch: 101.0834°
orbit number at epoch: 39247

The dashed part of the orbit path shows where the satellite is in the earth's shadow,  

DLR